Location: Newark
(3.0500°N, 36.0167°E)
Time: 16:42:50
(UTC+00:00)

Transit 2A Rocket - Pass Details

Date: 23 August 2019
Orbit: 592 x 911 km, 66.7° (Epoch: 14 September)

Event Time Altitude Azimuth Distance (km) Brightness Sun altitude
Rises 02:50:04 0° 345° (NNW) 2,818 7.9 -11.3°
Reaches altitude 10° 02:52:19 10° 349° (N) 1,912 7.1 -10.7°
Maximum altitude 02:56:31 63° 70° (ENE) 664 5.0 -9.7°
Drops below altitude 10° 03:00:50 10° 151° (SSE) 1,958 7.3 -8.7°
Sets 03:03:09 0° 154° (SSE) 2,894 8.2 -8.1°
